Wind_Speed
119 122 123 125 127 129 129 129 129 128 129 129 129 129 127 124 122 118 114 111 110 109 110 110 108 107 107 108 107 104 101 99 95 95 94 95 95 94 95 95 97 98 101
124 126 128 129 130 131 133 135 135 133 130 127 124 120 116 115 113 109 105 107 107 107 107 104 102 101 101 99 96 94 91 90 86 86 84 84 85 87 89 91 91 94 98
125 129 130 133 135 136 136 134 131 128 126 123 120 113 109 109 106 105 107 107 107 104 98 96 96 96 92 91 87 84 81 79 78 77 75 74 75 77 78 81 83 85 91
126 127 129 130 131 131 132 127 122 122 120 116 109 103 100 98 96 97 96 98 96 95 93 91 88 83 80 78 76 75 72 70 70 69 69 68 67 69 72 75 77 80 82
121 123 124 125 126 126 124 124 124 122 110 98 93 90 86 87 87 85 85 84 83 84 82 80 75 70 68 66 63 62 60 59 58 58 58 57 58 60 62 63 70 74 77
119 123 123 125 128 128 126 122 117 106 94 87 82 79 77 76 77 77 75 72 71 70 67 64 60 58 56 54 53 53 51 49 50 49 49 49 51 53 54 57 61 64 71
122 124 125 125 120 119 111 104 94 87 82 76 73 69 67 67 65 63 61 58 56 54 52 51 50 48 46 44 43 42 42 41 41 42 42 45 47 50 51 52 54 58 63
122 121 110 110 101 95 88 83 79 73 69 64 62 58 57 56 53 52 49 47 44 44 43 42 41 40 37 36 38 38 38 40 41 42 43 47 49 53 52 54 52 55 59
103 100 95 89 83 78 74 71 67 62 59 55 51 49 47 45 44 42 39 38 37 36 35 35 35 37 36 36 38 39 39 42 41 41 42 46 51 53 54 56 59 56 60
87 82 79 75 72 69 65 62 58 54 49 46 43 41 39 36 34 33 32 30 32 34 37 37 36 38 39 38 35 36 37 41 43 42 44 45 46 50 50 51 54 54 60
76 72 70 68 66 62 57 52 49 45 41 38 36 34 31 29 27 26 28 30 33 38 40 41 39 37 34 36 36 37 39 40 43 44 45 45 45 47 46 45 49 53 54
68 65 64 62 58 52 48 43 40 37 34 31 28 26 24 24 26 30 33 35 35 36 35 35 35 35 36 36 37 37 38 39 40 42 42 42 41 40 41 41 44 45 47
62 60 58 54 48 43 38 35 32 29 26 23 21 21 22 25 28 29 30 30 27 27 28 29 31 32 32 34 34 35 36 36 36 36 35 33 36 33 33 35 37 39 43
56 53 51 46 39 34 30 28 25 22 20 19 20 22 25 26 30 28 26 24 23 24 26 27 30 32 34 35 35 35 33 32 30 29 30 28 27 27 28 30 32 35 37
49 47 43 37 31 27 24 21 18 17 17 19 22 22 26 28 25 24 24 21 22 25 28 31 33 34 33 33 31 29 27 25 23 21 20 21 22 21 24 27 27 29 30
43 40 34 28 22 20 18 14 13 14 16 19 22 25 27 20 21 22 21 23 26 28 30 32 34 32 30 28 27 26 23 20 17 15 15 17 17 20 21 20 22 25 27
36 31 24 18 16 14 10 10 12 15 19 22 25 25 20 16 19 20 22 26 28 28 29 30 34 33 30 26 23 21 17 13 10 10 12 12 14 17 19 20 22 24 27
29 21 15 12 9 7 6 7 11 15 18 22 23 21 15 16 19 21 23 26 28 28 29 31 35 33 30 25 22 18 12 9 6 5 7 9 12 15 15 18 20 22 25
20 13 9 6 5 3 4 8 12 17 19 23 22 16 16 18 20 21 23 25 27 29 30 32 34 34 30 24 19 15 10 7 4 1 4 8 11 13 15 17 19 22 25
11 7 4 3 2 2 4 9 12 17 21 22 21 14 15 19 22 21 22 24 26 27 29 30 32 33 30 23 18 13 7 6 3 2 4 8 11 14 16 19 20 24 26
6 1 3 4 2 2 5 9 13 18 21 22 22 19 18 20 22 23 25 26 26 27 28 28 30 32 30 23 18 13 7 5 5 5 7 9 12 13 16 18 23 25 29
1 5 6 6 2 3 6 10 15 18 20 23 23 22 22 23 25 26 26 26 25 24 26 27 28 31 29 24 19 14 9 6 6 7 7 10 12 15 16 19 23 24 26
5 8 9 5 4 4 7 10 14 17 20 22 25 25 25 26 26 25 26 26 25 23 25 27 27 30 29 26 20 15 10 8 7 8 9 9 13 15 17 20 24 27 29
10 11 9 7 5 4 7 10 13 16 19 22 25 26 30 30 29 30 30 29 27 24 25 25 26 28 29 27 22 17 11 8 7 8 10 11 14 16 18 23 26 28 32
12 12 10 8 5 5 8 10 13 17 21 24 26 28 30 31 33 34 35 32 28 25 24 24 26 28 30 29 23 18 14 10 8 8 11 12 14 17 21 25 26 29 32
14 12 11 9 5 6 9 11 15 16 21 24 25 28 31 34 38 38 39 34 29 25 24 24 26 27 29 30 26 20 16 12 10 9 10 13 15 17 21 26 28 30 33
Wind_Direction
292 292 291 292 292 292 292 291 291 291 291 291 291 290 290 289 289 288 287 286 286 285 283 281 280 280 279 278 278 278 277 276 273 269 267 266 265 262 260 257 254 251 249
292 293 293 292 291 291 292 292 293 292 292 292 292 292 291 291 289 288 286 285 284 284 282 281 281 281 281 280 280 280 279 276 274 272 268 264 261 259 257 254 251 248 246
293 292 293 292 292 292 293 293 294 294 293 293 292 290 290 290 287 284 283 281 281 284 283 282 283 284 283 282 282 280 278 276 274 271 268 263 260 257 255 253 251 248 246
291 291 291 292 293 293 294 295 296 296 296 295 293 290 291 289 287 284 284 284 284 285 285 285 285 284 283 281 279 278 277 274 272 270 268 265 261 258 254 251 249 247 243
293 293 294 295 296 297 298 299 298 299 298 294 293 290 291 289 286 288 286 287 287 287 285 285 285 284 282 281 279 277 274 272 270 267 264 262 259 255 251 249 247 246 245
295 294 294 296 299 297 296 298 297 298 298 295 295 293 292 290 288 287 287 287 286 285 287 287 285 283 281 279 276 274 272 269 267 265 263 260 258 254 250 246 245 244 244
295 295 295 296 296 297 298 296 297 297 297 297 296 295 293 291 292 291 291 290 290 290 288 286 284 282 280 279 276 273 271 269 266 263 262 261 260 257 253 249 246 243 243
293 294 293 296 298 297 299 298 299 300 301 300 299 297 295 295 295 293 294 294 290 289 288 288 288 287 284 282 281 277 275 271 268 266 263 262 259 258 255 254 248 246 245
296 297 298 298 299 300 300 301 303 303 302 302 301 300 299 300 298 297 295 295 295 294 293 291 290 290 289 287 285 282 276 273 267 262 260 257 258 257 255 254 252 245 245
301 303 303 302 301 301 303 304 304 302 304 303 303 303 302 300 299 301 302 303 302 299 299 301 299 298 296 292 286 282 278 274 272 268 265 261 258 256 253 251 248 245 240
305 305 304 303 304 304 303 304 303 305 304 305 305 303 304 307 309 307 308 307 307 306 308 308 306 301 294 290 287 283 279 276 274 272 268 265 262 259 256 249 246 242 240
307 306 305 306 306 305 305 305 303 304 305 304 305 309 315 316 315 315 316 315 311 305 303 301 300 298 296 293 290 287 283 278 274 271 270 268 263 256 252 248 245 242 239
307 306 305 307 308 308 306 306 308 305 304 306 312 320 320 318 317 316 314 315 317 313 308 303 302 302 300 298 295 292 288 285 281 276 271 262 257 252 247 243 241 238 235
306 304 305 308 310 308 308 308 305 306 308 318 326 324 323 324 324 324 324 323 319 320 322 321 319 317 315 310 304 299 295 290 284 274 265 259 254 247 241 237 233 230 228
305 304 307 310 307 307 307 305 307 313 325 326 326 327 331 330 326 328 328 326 333 336 337 333 328 325 320 314 307 303 299 292 284 271 266 257 247 241 236 231 226 222 219
305 306 309 308 307 308 306 307 317 330 329 331 334 333 333 329 329 332 334 338 340 343 342 338 334 332 329 323 316 311 308 300 289 279 266 250 239 231 223 219 215 212 210
306 308 308 307 310 303 306 317 327 338 343 337 332 334 336 337 335 339 341 345 344 343 347 346 343 343 342 334 322 321 315 306 292 273 251 234 221 216 211 207 205 202 202
309 309 307 313 303 290 308 329 346 342 328 326 335 342 350 347 344 343 345 346 345 349 353 355 352 349 348 344 336 334 329 327 314 261 227 207 203 206 199 195 197 194 195
310 309 313 301 268 292 343 350 349 341 341 350 353 354 356 354 354 351 347 348 351 354 358 0 359 353 356 353 347 347 349 356 350 261 177 179 181 180 172 174 178 181 181
307 310 300 243 235 336 360 357 352 349 1 9 10 6 358 357 356 352 350 354 356 357 1 5 7 1 1 1 359 2 11 30 39 111 150 164 168 166 170 172 168 162 167
299 298 198 181 194 25 13 5 357 4 16 14 17 10 1 356 354 354 354 353 358 1 5 9 13 11 3 10 9 14 29 61 90 135 144 154 164 169 166 158 158 167 167
220 173 173 169 154 56 31 9 7 19 20 22 17 14 10 3 359 358 356 357 360 2 7 13 17 18 12 10 18 20 41 68 95 110 140 152 162 164 165 161 158 162 165
163 171 163 162 127 64 29 18 22 27 24 25 26 18 15 12 10 10 9 6 8 7 11 16 20 20 19 15 19 28 41 73 98 113 129 156 157 160 162 161 157 159 162
168 164 163 149 110 56 27 23 25 26 27 29 30 24 18 15 15 15 18 17 16 14 17 21 25 24 24 22 20 27 45 64 98 117 128 142 159 157 160 158 157 160 163
166 162 157 138 109 51 26 28 34 36 40 37 33 29 25 26 27 26 23 21 19 17 21 26 28 28 27 28 26 28 35 61 85 109 127 135 148 155 159 157 159 159 162
162 161 155 137 107 56 44 42 38 43 42 38 40 30 33 34 30 28 27 26 24 23 25 30 35 34 31 30 32 33 40 59 77 96 118 136 145 156 162 158 155 155 157
Height
10558 10543 10533 10522 10510 10500 10490 10480 10472 10464 10454 10446 10436 10426 10418 10409 10400 10393 10387 10380 10373 10368 10361 10356 10351 10344 10341 10334 10332 10332 10333 10333 10340 10344 10345 10344 10345 10350 10354 10364 10374 10384 10391
10528 10514 10501 10488 10476 10465 10455 10443 10433 10424 10414 10404 10396 10388 10380 10371 10361 10355 10349 10341 10335 10330 10323 10320 10318 10311 10308 10302 10299 10297 10296 10293 10298 10300 10305 10305 10309 10312 10316 10322 10334 10343 10349
10500 10482 10470 10457 10442 10430 10418 10407 10396 10386 10375 10366 10358 10351 10343 10334 10324 10317 10310 10304 10299 10295 10290 10288 10284 10279 10275 10272 10269 10265 10262 10261 10261 10263 10266 10271 10274 10278 10284 10289 10295 10306 10315
10469 10455 10439 10425 10412 10398 10384 10373 10360 10348 10339 10329 10321 10313 10306 10297 10289 10282 10277 10273 10268 10263 10259 10256 10252 10249 10245 10241 10238 10235 10234 10233 10232 10234 10236 10238 10245 10249 10253 10260 10267 10271 10280
10435 10421 10408 10394 10380 10364 10352 10339 10325 10314 10303 10294 10286 10280 10274 10268 10260 10255 10250 10245 10240 10236 10230 10227 10225 10221 10218 10215 10212 10210 10210 10210 10209 10210 10211 10214 10217 10222 10227 10235 10237 10245 10252
10406 10389 10375 10362 10349 10331 10319 10306 10294 10285 10275 10266 10259 10254 10249 10241 10234 10229 10226 10223 10217 10211 10208 10204 10201 10197 10195 10193 10191 10189 10188 10189 10189 10190 10191 10193 10194 10198 10204 10210 10215 10221 10224
10376 10359 10346 10331 10315 10301 10289 10279 10267 10260 10251 10242 10236 10230 10224 10216 10212 10207 10203 10201 10197 10192 10188 10183 10180 10178 10176 10174 10172 10171 10170 10172 10172 10173 10175 10174 10175 10177 10182 10189 10194 10200 10202
10345 10330 10314 10301 10289 10275 10264 10254 10246 10237 10229 10222 10215 10210 10204 10199 10194 10190 10187 10184 10180 10175 10171 10168 10165 10161 10161 10159 10156 10156 10156 10155 10155 10157 10158 10156 10157 10157 10163 10166 10175 10179 10183
10316 10302 10289 10276 10264 10253 10243 10235 10227 10219 10212 10206 10200 10194 10189 10185 10180 10177 10173 10169 10165 10161 10157 10155 10153 10149 10147 10146 10144 10142 10141 10137 10138 10140 10142 10141 10139 10140 10143 10146 10148 10158 10162
10292 10277 10264 10252 10242 10233 10225 10219 10211 10204 10198 10191 10186 10181 10177 10174 10169 10165 10162 10158 10154 10150 10145 10142 10140 10138 10135 10132 10130 10128 10124 10121 10119 10120 10121 10121 10123 10122 10123 10128 10129 10135 10139
10267 10256 10243 10232 10224 10217 10210 10205 10197 10191 10186 10181 10176 10172 10168 10164 10160 10157 10153 10150 10146 10140 10135 10130 10127 10125 10121 10117 10114 10112 10109 10107 10104 10102 10101 10101 10102 10102 10104 10108 10110 10114 10121
10248 10237 10225 10217 10210 10203 10197 10191 10186 10181 10177 10172 10168 10164 10160 10157 10152 10148 10144 10140 10136 10132 10127 10122 10117 10114 10109 10105 10101 10097 10094 10091 10088 10086 10084 10084 10084 10085 10086 10090 10092 10099 10106
10230 10220 10211 10205 10198 10192 10186 10181 10177 10173 10169 10165 10162 10159 10155 10151 10146 10142 10138 10134 10129 10125 10121 10115 10110 10104 10098 10092 10087 10082 10077 10074 10072 10069 10068 10069 10068 10070 10073 10076 10080 10085 10090
10216 10207 10200 10194 10188 10182 10178 10173 10169 10166 10163 10160 10158 10153 10149 10144 10139 10135 10132 10128 10124 10118 10112 10106 10099 10092 10085 10079 10073 10067 10063 10059 10057 10056 10054 10055 10056 10058 10061 10064 10068 10072 10078
10202 10195 10190 10184 10179 10175 10171 10167 10164 10162 10159 10157 10154 10149 10144 10139 10134 10130 10126 10122 10117 10111 10104 10097 10090 10082 10075 10068 10062 10056 10051 10048 10046 10045 10045 10045 10046 10048 10051 10055 10060 10065 10071
10190 10185 10180 10176 10172 10169 10166 10163 10162 10160 10157 10154 10150 10144 10140 10135 10131 10127 10122 10116 10110 10104 10097 10090 10082 10074 10066 10058 10052 10047 10043 10040 10038 10037 10037 10037 10040 10041 10045 10051 10055 10060 10065
10182 10177 10173 10170 10167 10165 10163 10162 10160 10158 10155 10151 10147 10141 10137 10133 10129 10124 10118 10112 10105 10099 10093 10085 10076 10067 10059 10052 10046 10042 10038 10035 10034 10033 10032 10034 10035 10037 10041 10046 10051 10056 10061
10174 10170 10168 10165 10164 10163 10162 10161 10159 10157 10155 10150 10144 10138 10135 10131 10126 10121 10115 10109 10102 10096 10089 10081 10071 10062 10054 10048 10042 10038 10034 10032 10031 10030 10031 10032 10033 10035 10040 10045 10049 10055 10061
10168 10166 10164 10162 10162 10162 10161 10160 10159 10156 10152 10146 10141 10136 10133 10129 10125 10119 10113 10106 10099 10092 10086 10078 10069 10059 10052 10045 10040 10037 10033 10031 10030 10029 10030 10031 10032 10036 10040 10044 10048 10052 10059
10163 10162 10161 10161 10162 10162 10161 10161 10159 10155 10150 10145 10140 10136 10133 10129 10124 10118 10111 10104 10097 10091 10084 10077 10069 10059 10051 10045 10041 10037 10034 10031 10031 10030 10031 10033 10034 10038 10040 10044 10049 10054 10059
10160 10159 10160 10161 10163 10163 10162 10161 10158 10154 10149 10145 10141 10137 10132 10127 10122 10115 10109 10102 10096 10089 10083 10076 10070 10061 10052 10047 10042 10039 10036 10032 10032 10031 10032 10034 10036 10039 10043 10047 10052 10056 10061
10159 10159 10161 10163 10164 10164 10163 10161 10158 10154 10150 10146 10142 10138 10132 10127 10121 10115 10108 10101 10094 10088 10083 10077 10071 10065 10056 10049 10044 10040 10038 10035 10034 10034 10034 10036 10038 10041 10044 10049 10053 10058 10064
10159 10160 10162 10165 10166 10166 10164 10162 10158 10155 10152 10148 10144 10139 10133 10127 10121 10115 10108 10100 10094 10088 10083 10078 10072 10067 10059 10051 10046 10044 10041 10038 10036 10036 10037 10038 10040 10043 10046 10051 10055 10060 10067
10160 10163 10165 10167 10168 10168 10166 10163 10160 10157 10154 10150 10146 10141 10135 10129 10122 10115 10107 10101 10094 10088 10084 10079 10074 10070 10063 10056 10049 10046 10044 10041 10040 10039 10039 10041 10043 10045 10049 10052 10056 10063 10069
10163 10166 10168 10169 10170 10169 10168 10165 10162 10159 10157 10153 10149 10144 10138 10132 10125 10118 10110 10102 10095 10090 10086 10081 10076 10072 10067 10060 10055 10050 10047 10044 10043 10043 10043 10043 10045 10048 10051 10055 10060 10066 10073
10165 10169 10171 10172 10173 10172 10170 10168 10165 10162 10160 10156 10152 10147 10142 10135 10129 10121 10113 10105 10099 10093 10088 10083 10078 10075 10071 10065 10060 10055 10052 10049 10046 10046 10046 10047 10049 10052 10055 10060 10065 10071 10077